[[{"header":{"parameterUnit":"m.s-1","parameterCategory":1,"la1":30.2991,"la2":30.254,"lo1":-89.0895,"lo2":-89.0444,"dy":0.0017,"dx":0.0017,"nx":28,"ny":28,"refTime":"2025-07-26T03:00:00:Z","depth":0,"parameterNumber":2,"parameterNumberName":"U-component_of_WINDS"},"data":[0,0,0,0,0,0,0,0,0,0,0,0,0,0,0,0,0,0,0,0,0,0,0,0,0,0,0,0,0,0,0,0,0,0,0,0,0,0,0,0,0,0,0,0,0,0,0,0,0,0,0,0,0,0,0,0,0,0,1.9041,1.9043,0,1.9215,1.9217,1.9219,1.9275,1.9274,1.9273,1.9272,1.9451,1.9456,1.9462,0,0,0,0,0,0,0,0,0,0,0,0,0,1.8756,1.8761,1.9041,1.9043,1.9045,1.9215,1.9217,1.922,1.9275,1.9274,1.9273,1.9272,1.9449,1.9456,1.9462,0,0,0,0,0,0,0,0,0,0,0,0,0,1.89,1.8763,1.9041,1.9093,1.91,1.9214,1.9217,1.922,1.9275,1.9274,1.9272,1.9271,1.9447,1.9455,1.9463,1.9538,0,0,1.9488,1.9492,0,0,0,0,0,0,0,0,1.8892,1.891,1.9083,1.909,1.9097,1.9222,1.9182,1.9327,1.9275,1.9208,1.9272,1.9271,1.9376,1.939,1.9425,1.9546,1.9554,1.9489,1.9494,1.9498,1.95,0,0,0,0,0,0,0,1.8882,1.8903,1.911,1.9086,1.9094,1.9108,1.9127,1.921,1.9297,1.9214,1.9219,1.9238,1.9379,1.9417,1.943,1.9557,1.9489,1.9496,1.9501,1.9504,1.9748,1.9749,0,0,0,0,0,0,1.8863,1.8894,1.9104,1.9115,1.8989,1.9114,1.9136,1.9183,1.9296,1.9312,1.9239,1.924,1.9403,1.942,1.9436,1.9531,1.9498,1.9505,1.951,1.9746,1.9748,1.9749,0,0,0,0,0,0,1.8856,1.8881,1.9097,1.9006,1.9035,1.912,1.9173,1.9187,1.9225,1.9315,1.9331,1.9262,1.9403,1.9425,1.9512,1.9538,1.9509,1.9517,1.9744,1.9747,1.9749,1.972,0,0,0,0,0,0,1.8848,1.8878,1.8908,1.9006,1.9039,1.917,1.9175,1.9191,1.9239,1.9242,1.934,1.9355,1.9404,1.9499,1.952,1.9548,1.9523,1.9742,1.9745,1.9748,1.9719,1.9721,1.9723,0,0,0,0,0,1.8838,1.8893,1.8909,1.8934,1.9078,1.9172,1.919,1.9245,1.9241,1.9271,1.9329,1.9352,1.9531,1.9508,1.9532,1.9563,1.9741,1.9744,1.9748,1.9718,1.9721,1.9723,0,0,0,0,0,0,1.8795,1.8907,1.8926,1.9015,1.9083,1.9181,1.922,1.9246,1.9317,1.9317,1.9382,1.9404,1.9486,1.9534,1.9505,1.9641,1.9637,1.9646,1.9607,1.961,1.9612,1.9598,1.953,0,0,0,0,0,1.8796,1.8863,1.8957,1.9026,1.906,1.9134,1.9177,1.9213,1.9287,1.9316,1.938,1.9451,1.9523,1.9569,1.9641,1.9727,1.9748,1.976,1.9761,1.9762,1.9769,1.9817,1.9823,1.9761,1.9761,1.9761,0,0,1.8799,1.8868,1.8907,1.902,1.9077,1.9144,1.9158,1.9229,1.928,1.9327,1.9413,1.9463,1.9546,1.9632,1.9674,1.9674,1.9791,1.9767,1.9767,1.9773,1.9821,1.9827,1.9832,1.9763,1.9762,1.9762,0,0,1.8838,1.8898,1.8962,1.9019,1.9105,1.9154,1.9169,1.9263,1.9298,1.9385,1.9422,1.9483,1.9606,1.9664,1.9709,1.977,1.9794,1.9791,1.98,1.9846,1.9851,1.9856,1.9877,1.9883,1.9797,1.9797,1.9797,0,1.8831,1.8934,1.8991,1.906,1.9109,1.9154,1.9219,1.9272,1.9377,1.9409,1.9409,1.9564,1.9623,1.9723,1.9738,1.9773,1.9792,1.978,1.9846,1.9851,1.9856,1.9877,1.9885,1.9796,1.9796,1.9796,1.9796,0,1.892,1.8991,1.9032,1.9132,1.9185,1.9252,1.9319,1.9366,1.9397,1.9446,1.9535,1.9607,1.9694,1.972,1.9752,1.9825,1.9823,1.9833,1.9831,1.986,1.9881,1.9889,1.9795,1.9795,1.9795,1.9796,0,0,1.8937,1.9068,1.9082,1.9127,1.9226,1.9282,1.9351,1.9435,1.9474,1.9545,1.9603,1.9706,1.9716,1.9768,1.9806,1.9847,1.9889,1.9853,1.9856,1.9856,1.9973,1.9964,1.9972,1.9906,1.9908,1.9909,1.9966,0,1.8988,1.9112,1.9166,1.9265,1.9331,1.9375,1.9435,1.9501,1.9549,1.9612,1.9664,1.9736,1.9744,1.9775,1.9818,1.9875,1.9913,1.9872,1.9961,1.9963,1.9937,1.9983,1.9974,2.0024,1.9974,1.9976,1.9977,0,1.9064,1.9135,1.9241,1.9331,1.9361,1.9413,1.9495,1.9554,1.9631,1.9663,1.9719,1.9756,1.9829,1.9822,1.9924,1.9894,1.9934,1.9968,1.9971,1.9981,1.9971,1.9993,2.0041,2.0048,1.999,1.9989,1.9988,0,1.9064,1.9187,1.9266,1.9304,1.9411,1.9447,1.9493,1.9569,1.9616,1.9687,1.9718,1.9797,1.984,1.99,1.9957,1.9947,2.0053,2.0051,2.0081,2.0079,2.0101,2.0098,2.0155,2.0127,2.0127,2.0127,2.0127,0,1.9115,1.9178,1.9267,1.9316,1.9387,1.9448,1.9517,1.9567,1.9634,1.9692,1.9736,1.979,1.9862,1.9925,1.997,2.0047,2.0066,2.0094,2.0105,2.0089,2.0086,2.0116,2.0113,2.0129,2.0129,2.0128,2.0128,0,1.9128,1.919,1.9279,1.9373,1.9398,1.9447,1.9528,1.9576,1.9626,1.9699,1.972,1.9798,1.9875,1.9937,2.0038,2.0068,2.0148,2.0161,2.0122,2.0127,2.0154,2.015,2.0231,2.0244,2.0208,2.0208,2.0208,0,1.9156,1.9205,1.9304,1.9347,1.9392,1.946,1.9508,1.957,1.9619,1.9709,1.9747,1.9826,1.9893,2.0014,2.0079,2.0156,2.0171,2.0194,2.0183,2.0166,2.0171,2.0166,2.0171,2.0195,2.0195,2.0195,2.0195,0,1.9198,1.9226,1.9294,1.9373,1.9429,1.9494,1.956,1.9592,1.9666,1.9718,1.9797,1.9849,1.9951,2.0029,2.0113,2.0161,2.019,2.0198,2.0209,2.0193,2.0168,2.0181,2.0124,2.0196,2.0196,2.0196,2.0196,2.0196,1.9219,1.9264,1.9341,1.9415,1.9471,1.9532,1.9582,1.9637,1.9704,1.9792,1.9825,1.9905,1.998,2.0096,2.0144,2.0208,2.0211,2.0227,2.0231,2.0233,2.0231,2.0158,2.0223,2.0223,2.0224,2.0224,2.0224,0,1.9262,1.9314,1.9382,1.9472,1.953,1.9553,1.9627,1.9674,1.9744,1.9812,1.9876,1.9966,2.0043,2.0114,2.0194,2.0231,2.0246,2.025,2.0247,2.0258,2.0224,2.0206,2.0236,2.0236,2.0236,2.0236,2.0236,2.0236,1.9292,1.937,1.9407,1.9513,1.9565,1.9644,1.9684,1.974,1.9794,1.9893,1.9956,2.0002,2.0071,2.0156,2.0227,2.0246,2.0273,2.0273,2.0295,2.0262,2.026,2.0258,2.0242,2.0278,2.0278,2.0323,2.0324,2.0324]},{"header":{"parameterUnit":"m.s-1","parameterCategory":1,"la1":30.2991,"la2":30.254,"lo1":-89.0895,"lo2":-89.0444,"dy":0.0017,"dx":0.0017,"nx":28,"ny":28,"refTime":"2025-07-26T03:00:00:Z","depth":0,"parameterNumber":3,"parameterNumberName":"V-component_of_WINDS"},"data":[0,0,0,0,0,0,0,0,0,0,0,0,0,0,0,0,0,0,0,0,0,0,0,0,0,0,0,0,0,0,0,0,0,0,0,0,0,0,0,0,0,0,0,0,0,0,0,0,0,0,0,0,0,0,0,0,0,0,3.2649,3.2649,0,3.2582,3.2581,3.258,3.254,3.254,3.254,3.254,3.2464,3.2462,3.2461,0,0,0,0,0,0,0,0,0,0,0,0,0,3.2738,3.2737,3.2649,3.2649,3.2648,3.2582,3.2581,3.258,3.2541,3.254,3.254,3.254,3.2465,3.2463,3.246,0,0,0,0,0,0,0,0,0,0,0,0,0,3.2688,3.2737,3.265,3.262,3.2617,3.2582,3.2581,3.258,3.2541,3.254,3.254,3.254,3.2466,3.2463,3.246,3.2447,0,0,3.2451,3.245,0,0,0,0,0,0,0,0,3.2691,3.2685,3.2625,3.2622,3.2618,3.2569,3.2584,3.2535,3.2541,3.2569,3.254,3.254,3.2499,3.2493,3.2481,3.2443,3.244,3.2451,3.2449,3.2448,3.2447,0,0,0,0,0,0,0,3.2694,3.2687,3.2622,3.2625,3.262,3.2608,3.2601,3.2575,3.2536,3.2567,3.2564,3.2557,3.2497,3.2484,3.2479,3.2439,3.2451,3.2449,3.2447,3.2446,3.2386,3.2387,0,0,0,0,0,0,3.2704,3.2691,3.2625,3.262,3.2655,3.2607,3.2599,3.2585,3.2536,3.2529,3.2557,3.2555,3.2489,3.2482,3.2476,3.2457,3.2448,3.2446,3.2444,3.2386,3.2386,3.2387,0,0,0,0,0,0,3.2706,3.2698,3.2627,3.2655,3.2645,3.2606,3.2591,3.2584,3.2571,3.2529,3.2521,3.2551,3.2488,3.248,3.2455,3.2454,3.2444,3.2442,3.2386,3.2386,3.2387,3.242,0,0,0,0,0,0,3.2708,3.2699,3.2695,3.2655,3.2644,3.2609,3.2591,3.2583,3.2567,3.2564,3.2521,3.2514,3.2487,3.2459,3.2452,3.245,3.244,3.2386,3.2386,3.2386,3.2418,3.2421,3.2423,0,0,0,0,0,3.2712,3.2706,3.2695,3.2687,3.2638,3.2609,3.2602,3.2574,3.2567,3.2562,3.2535,3.2515,3.2456,3.2457,3.2449,3.2446,3.2386,3.2386,3.2386,3.2417,3.242,3.2423,0,0,0,0,0,0,3.2744,3.27,3.2688,3.2669,3.2644,3.2603,3.2595,3.2578,3.2552,3.255,3.2514,3.2505,3.2483,3.2462,3.2464,3.243,3.2418,3.2417,3.2445,3.2447,3.245,3.2455,3.2437,0,0,0,0,0,3.275,3.2732,3.2693,3.2681,3.2669,3.2634,3.2621,3.2601,3.2572,3.2561,3.2532,3.2503,3.2477,3.2461,3.2435,3.2415,3.2405,3.2409,3.2411,3.2413,3.2412,3.2399,3.24,3.2387,3.2387,3.2387,0,0,3.276,3.2734,3.2724,3.2687,3.2664,3.2645,3.2625,3.2606,3.259,3.2557,3.2532,3.251,3.2475,3.2452,3.244,3.2433,3.2413,3.2414,3.2416,3.2413,3.2399,3.2401,3.2402,3.2388,3.2388,3.2388,0,0,3.2769,3.2748,3.2735,3.2714,3.2681,3.2659,3.2656,3.2617,3.2602,3.2577,3.2551,3.2531,3.2489,3.2465,3.2447,3.2448,3.2428,3.244,3.2452,3.2439,3.244,3.2441,3.244,3.244,3.2439,3.2439,3.2439,0,3.2785,3.2757,3.273,3.2712,3.2695,3.2667,3.2652,3.2632,3.2592,3.258,3.2574,3.252,3.2494,3.2465,3.2466,3.2452,3.2446,3.2444,3.2443,3.2443,3.2443,3.2442,3.2442,3.2441,3.2441,3.244,3.244,0,3.2778,3.2759,3.2752,3.2717,3.2699,3.2683,3.2651,3.2637,3.2619,3.2596,3.257,3.2539,3.2506,3.2498,3.248,3.2466,3.2463,3.245,3.2438,3.2447,3.2445,3.2444,3.2443,3.2443,3.2442,3.2442,0,0,3.2805,3.2756,3.2753,3.2737,3.2699,3.2683,3.2665,3.2635,3.2623,3.2596,3.2579,3.2544,3.2532,3.2512,3.249,3.248,3.2481,3.2468,3.2466,3.2471,3.2463,3.2473,3.2473,3.2468,3.2468,3.2468,3.2466,0,3.2807,3.2776,3.2751,3.2728,3.2709,3.2682,3.2666,3.264,3.2619,3.2598,3.2573,3.2548,3.2535,3.2523,3.2511,3.2484,3.2479,3.2483,3.245,3.2449,3.2459,3.2472,3.2482,3.2481,3.2465,3.2465,3.2465,0,3.2806,3.2783,3.2759,3.2724,3.2715,3.2701,3.2672,3.2653,3.2623,3.2607,3.2586,3.2564,3.2541,3.2532,3.25,3.2504,3.2488,3.2473,3.2472,3.2467,3.2457,3.2466,3.248,3.248,3.2464,3.2464,3.2464,0,3.2827,3.279,3.2771,3.2757,3.2716,3.2707,3.2689,3.2658,3.2642,3.2616,3.2604,3.2575,3.2559,3.2535,3.2505,3.2502,3.2476,3.2464,3.2461,3.2462,3.2456,3.2457,3.2467,3.2448,3.2448,3.2448,3.2448,0,3.2832,3.2818,3.278,3.2768,3.2751,3.2721,3.2705,3.2684,3.2657,3.2639,3.2613,3.2596,3.2558,3.2536,3.2512,3.2489,3.2481,3.2467,3.2461,3.2469,3.2471,3.2458,3.2457,3.2448,3.2448,3.2448,3.2448,0,3.2853,3.2826,3.2803,3.2767,3.2757,3.2746,3.2714,3.27,3.2678,3.2655,3.2648,3.2612,3.2585,3.2553,3.2514,3.2498,3.2476,3.2467,3.2487,3.2484,3.2482,3.2482,3.2484,3.2482,3.2465,3.2465,3.2466,0,3.2857,3.2846,3.2809,3.2796,3.278,3.2759,3.2743,3.2713,3.2697,3.2662,3.2652,3.2624,3.2599,3.2557,3.2526,3.2496,3.2485,3.2488,3.2481,3.2489,3.2484,3.2485,3.2483,3.249,3.249,3.249,3.2491,0,3.2868,3.2856,3.2835,3.281,3.2792,3.277,3.2746,3.2736,3.2702,3.2684,3.2658,3.2639,3.2601,3.2572,3.2539,3.2518,3.2498,3.2494,3.2491,3.2499,3.2511,3.2504,3.2492,3.2493,3.2493,3.2493,3.2493,3.2493,3.288,3.2869,3.2841,3.2819,3.2798,3.2777,3.2763,3.274,3.2718,3.2686,3.2669,3.2642,3.2611,3.2565,3.2545,3.2522,3.2515,3.2511,3.251,3.251,3.2512,3.2516,3.2515,3.2515,3.2515,3.2515,3.2515,0,3.2889,3.287,3.285,3.2819,3.2801,3.2787,3.276,3.2745,3.2723,3.2697,3.2674,3.2642,3.2615,3.2582,3.2552,3.2539,3.2529,3.2532,3.2532,3.2528,3.252,3.2525,3.2541,3.2541,3.2541,3.2541,3.2541,3.2541,3.2891,3.2872,3.2856,3.2826,3.2806,3.2782,3.2768,3.2748,3.2727,3.2694,3.2672,3.2652,3.2622,3.259,3.2563,3.2554,3.2543,3.2549,3.2537,3.253,3.2528,3.2526,3.253,3.2547,3.2547,3.2546,3.2546,3.2546]}]]